When you browse on this site, cookies collect data to enhance your experience and personalize the content and advertising you see.
Visit our Privacy Policy to learn more. By continuing to use the site, you agree to this use of cookies and data.
  • In Belgien
  • Länderverzeichnis
  • Für 7 Tage
  • Wassertemperatur
  • Wetterkarte
  • Widgets
  • user-avatar
    Anmelden

    Stündliche Wetter Goldene Küste

    Heute, 4 Juni, Donnerstag

    Zeit Temperatur Niederschläge Wind Luftdruck Luftfeuchtigkeit
    00:00 +9°C° 0 mm 5 m/S 765 mmHg 80%
    01:00 +9°C° 0 mm 5 m/S 765 mmHg 82%
    02:00 +9°C° 0 mm 5 m/S 765 mmHg 81%
    03:00 +8°C° 0 mm 5 m/S 765 mmHg 80%
    04:00 +8°C° 0 mm 5 m/S 765 mmHg 79%
    05:00 +8°C° 0 mm 5 m/S 765 mmHg 80%
    06:00 +8°C° 0 mm 5 m/S 766 mmHg 81%
    07:00 +8°C° 0 mm 5 m/S 766 mmHg 82%
    08:00 +12°C° 0 mm 5 m/S 766 mmHg 76%
    09:00 +14°C° 0 mm 5 m/S 766 mmHg 69%
    10:00 +17°C° 0 mm 6 m/S 767 mmHg 63%
    11:00 +17°C° 0 mm 6 m/S 766 mmHg 63%
    12:00 +17°C° 0 mm 5 m/S 766 mmHg 64%
    13:00 +17°C° 0 mm 5 m/S 765 mmHg 64%
    14:00 +17°C° 0.1 mm 5 m/S 765 mmHg 66%
    15:00 +17°C° 0.1 mm 5 m/S 765 mmHg 67%
    16:00 +17°C° 0.1 mm 5 m/S 765 mmHg 69%
    17:00 +15°C° 0.1 mm 5 m/S 766 mmHg 75%
    18:00 +14°C° 0.1 mm 5 m/S 766 mmHg 80%
    19:00 +13°C° 0.1 mm 5 m/S 767 mmHg 86%
    20:00 +13°C° 0.1 mm 5 m/S 767 mmHg 88%
    21:00 +12°C° 0.1 mm 5 m/S 767 mmHg 91%
    22:00 +12°C° 0.1 mm 5 m/S 767 mmHg 94%
    23:00 +10°C° 0 mm 5 m/S 767 mmHg 95%

    Morgen, 5 Juni, Freitag

    Zeit Temperatur Niederschläge Wind Luftdruck Luftfeuchtigkeit
    00:00 +10°C° 0 mm 5 m/S 767 mmHg 96%
    01:00 +10°C° 0 mm 5 m/S 766 mmHg 97%
    02:00 +10°C° 0 mm 4 m/S 766 mmHg 96%
    03:00 +10°C° 0 mm 4 m/S 766 mmHg 95%
    04:00 +10°C° 0 mm 4 m/S 766 mmHg 93%
    05:00 +10°C° 0 mm 4 m/S 766 mmHg 93%
    06:00 +10°C° 0 mm 4 m/S 766 mmHg 92%
    07:00 +10°C° 0 mm 4 m/S 767 mmHg 92%
    08:00 +12°C° 0 mm 4 m/S 767 mmHg 82%
    09:00 +15°C° 0 mm 4 m/S 767 mmHg 73%
    10:00 +18°C° 0 mm 4 m/S 767 mmHg 63%
    11:00 +19°C° 0 mm 4 m/S 766 mmHg 60%
    12:00 +20°C° 0 mm 4 m/S 765 mmHg 57%
    13:00 +21°C° 0 mm 4 m/S 765 mmHg 53%
    14:00 +20°C° 0 mm 4 m/S 764 mmHg 55%
    15:00 +20°C° 0 mm 3 m/S 764 mmHg 58%
    16:00 +19°C° 0 mm 3 m/S 764 mmHg 60%
    17:00 +17°C° 0 mm 3 m/S 764 mmHg 68%
    18:00 +14°C° 0 mm 3 m/S 765 mmHg 76%
    19:00 +12°C° 0 mm 3 m/S 765 mmHg 85%
    20:00 +12°C° 0.1 mm 3 m/S 765 mmHg 86%
    21:00 +12°C° 0.1 mm 3 m/S 765 mmHg 87%
    22:00 +11°C° 0.1 mm 3 m/S 765 mmHg 88%
    23:00 +11°C° 0.1 mm 3 m/S 765 mmHg 87%

    übermorgen, 6 Juni, Samstag

    Zeit Temperatur Niederschläge Wind Luftdruck Luftfeuchtigkeit
    00:00 +12°C° 0.1 mm 3 m/S 764 mmHg 86%
    01:00 +12°C° 0.1 mm 3 m/S 764 mmHg 86%
    02:00 +11°C° 0.1 mm 3 m/S 764 mmHg 87%
    03:00 +12°C° 0.1 mm 2 m/S 764 mmHg 89%
    04:00 +12°C° 0.1 mm 2 m/S 763 mmHg 90%
    05:00 +12°C° 0 mm 2 m/S 764 mmHg 90%
    06:00 +12°C° 0 mm 2 m/S 764 mmHg 89%
    07:00 +12°C° 0 mm 2 m/S 764 mmHg 89%
    08:00 +15°C° 0 mm 2 m/S 764 mmHg 77%
    09:00 +18°C° 0 mm 2 m/S 764 mmHg 66%
    10:00 +21°C° 0 mm 2 m/S 764 mmHg 55%
    11:00 +21°C° 0 mm 2 m/S 763 mmHg 54%
    12:00 +23°C° 0 mm 2 m/S 762 mmHg 53%
    13:00 +23°C° 0 mm 2 m/S 761 mmHg 52%
    14:00 +21°C° 0 mm 2 m/S 761 mmHg 58%
    15:00 +20°C° 0 mm 2 m/S 761 mmHg 64%
    16:00 +19°C° 0 mm 2 m/S 761 mmHg 71%
    17:00 +17°C° 0.1 mm 2 m/S 761 mmHg 78%
    18:00 +16°C° 0.1 mm 1 m/S 762 mmHg 85%
    19:00 +14°C° 0.1 mm 1 m/S 762 mmHg 91%
    20:00 +14°C° 0 mm 1 m/S 762 mmHg 92%
    21:00 +14°C° 0 mm 1 m/S 762 mmHg 93%
    22:00 +13°C° 0 mm 1 m/S 762 mmHg 94%
    23:00 +13°C° 0.1 mm 1 m/S 762 mmHg 94%

    7 Juni, Sonntag

    Zeit Temperatur Niederschläge Wind Luftdruck Luftfeuchtigkeit
    00:00 +13°C° 0.1 mm 2 m/S 762 mmHg 94%
    01:00 +13°C° 0.1 mm 2 m/S 762 mmHg 95%
    02:00 +13°C° 0.1 mm 2 m/S 761 mmHg 94%
    03:00 +13°C° 0.1 mm 2 m/S 761 mmHg 94%
    04:00 +13°C° 0.1 mm 2 m/S 761 mmHg 94%
    05:00 +12°C° 0.1 mm 2 m/S 761 mmHg 94%
    06:00 +12°C° 0.1 mm 2 m/S 762 mmHg 94%
    07:00 +12°C° 0.1 mm 2 m/S 762 mmHg 94%
    08:00 +15°C° 0 mm 2 m/S 762 mmHg 82%
    09:00 +18°C° 0 mm 2 m/S 762 mmHg 69%
    10:00 +21°C° 0 mm 2 m/S 762 mmHg 57%
    11:00 +21°C° 0 mm 2 m/S 761 mmHg 52%
    12:00 +23°C° 0 mm 2 m/S 760 mmHg 46%
    13:00 +24°C° 0 mm 2 m/S 760 mmHg 41%
    14:00 +23°C° 0 mm 2 m/S 759 mmHg 45%
    15:00 +21°C° 0 mm 2 m/S 759 mmHg 49%
    16:00 +21°C° 0 mm 2 m/S 759 mmHg 53%
    17:00 +19°C° 0 mm 2 m/S 760 mmHg 61%
    18:00 +17°C° 0 mm 2 m/S 760 mmHg 68%
    19:00 +15°C° 0 mm 2 m/S 761 mmHg 75%
    20:00 +14°C° 0.1 mm 2 m/S 761 mmHg 76%
    21:00 +14°C° 0.1 mm 2 m/S 761 mmHg 78%
    22:00 +13°C° 0.1 mm 2 m/S 761 mmHg 79%
    23:00 +13°C° 0 mm 2 m/S 761 mmHg 78%

    8 Juni, Montag

    Zeit Temperatur Niederschläge Wind Luftdruck Luftfeuchtigkeit
    00:00 +12°C° 0 mm 2 m/S 762 mmHg 76%
    01:00 +10°C° 0 mm 2 m/S 762 mmHg 75%
    02:00 +10°C° 0 mm 3 m/S 762 mmHg 80%
    03:00 +10°C° 0 mm 3 m/S 762 mmHg 85%
    04:00 +10°C° 0 mm 3 m/S 762 mmHg 89%
    05:00 +10°C° 0 mm 4 m/S 762 mmHg 91%
    06:00 +10°C° 0 mm 4 m/S 763 mmHg 93%
    07:00 +9°C° 0 mm 5 m/S 763 mmHg 95%
    08:00 +12°C° 0 mm 5 m/S 764 mmHg 84%
    09:00 +15°C° 0 mm 5 m/S 764 mmHg 73%
    10:00 +17°C° 0 mm 6 m/S 764 mmHg 63%
    11:00 +19°C° 0 mm 6 m/S 763 mmHg 58%
    12:00 +20°C° 0 mm 6 m/S 763 mmHg 54%
    13:00 +20°C° 0 mm 6 m/S 763 mmHg 50%
    14:00 +20°C° 0 mm 6 m/S 763 mmHg 52%
    15:00 +19°C° 0 mm 6 m/S 763 mmHg 54%
    16:00 +17°C° 0 mm 6 m/S 764 mmHg 56%
    17:00 +16°C° 0 mm 6 m/S 764 mmHg 66%
    18:00 +14°C° 0 mm 5 m/S 765 mmHg 76%
    19:00 +12°C° 0 mm 5 m/S 766 mmHg 87%
    20:00 +12°C° 0 mm 4 m/S 766 mmHg 90%
    21:00 +11°C° 0 mm 4 m/S 766 mmHg 92%
    22:00 +11°C° 0 mm 4 m/S 767 mmHg 95%
    23:00 +11°C° 0 mm 4 m/S 766 mmHg 95%

    9 Juni, Dienstag

    Zeit Temperatur Niederschläge Wind Luftdruck Luftfeuchtigkeit
    00:00 +11°C° 0 mm 4 m/S 766 mmHg 95%
    01:00 +11°C° 0 mm 4 m/S 766 mmHg 96%
    02:00 +11°C° 0 mm 4 m/S 766 mmHg 96%
    03:00 +11°C° 0 mm 4 m/S 766 mmHg 96%
    04:00 +11°C° 0 mm 3 m/S 766 mmHg 97%
    05:00 +11°C° 0 mm 4 m/S 767 mmHg 96%
    06:00 +11°C° 0 mm 4 m/S 767 mmHg 96%
    07:00 +11°C° 0 mm 4 m/S 767 mmHg 95%
    08:00 +13°C° 0 mm 4 m/S 768 mmHg 84%
    09:00 +17°C° 0 mm 4 m/S 768 mmHg 73%
    10:00 +19°C° 0 mm 4 m/S 768 mmHg 62%
    11:00 +20°C° 0.1 mm 4 m/S 767 mmHg 60%
    12:00 +21°C° 0.1 mm 5 m/S 767 mmHg 58%
    13:00 +21°C° 0.1 mm 5 m/S 766 mmHg 57%
    14:00 +21°C° 0.1 mm 5 m/S 766 mmHg 62%
    15:00 +20°C° 0.1 mm 5 m/S 766 mmHg 68%
    16:00 +19°C° 0.1 mm 4 m/S 766 mmHg 74%
    17:00 +18°C° 0.2 mm 4 m/S 767 mmHg 81%
    18:00 +17°C° 0.2 mm 4 m/S 767 mmHg 88%
    19:00 +14°C° 0.2 mm 3 m/S 767 mmHg 94%
    20:00 +14°C° 0.4 mm 4 m/S 767 mmHg 95%
    21:00 +14°C° 0.4 mm 4 m/S 767 mmHg 95%
    22:00 +14°C° 0.4 mm 4 m/S 767 mmHg 96%
    23:00 +14°C° 0.8 mm 4 m/S 767 mmHg 95%
    Mehr zeigen